This demonstration page uses our WeatherBlox Daily Observations layout. Learn more.

Left ArrowRight Arrow

Hourly Observations for September 24, 2018

Temp ( °F °C ) Dew Point ( °F °C ) Humidity (%) Winds ( mph kmh ) Pressure ( in mb ) Visibility ( mi km ) Precip ( " mm )
12:54 am 00:54 Clear 57 13.9 52 11.1 83 83 SSE 9 15 29.91 1013 10 16 0.00 0.00
1:54 am 01:54 Clear 56 13.3 52 11.1 87 87 S 8 13 29.91 1013 10 16 0.00 0.00
2:54 am 02:54 Clear 56 13.3 52 11.1 87 87 S 8 13 29.90 1013 10 16 0.00 0.00
3:54 am 03:54 Clear 54 12.2 51 10.6 90 90 SSE 7 11 29.90 1013 10 16 0.00 0.00
4:54 am 04:54 Clear 57 13.9 55 12.8 93 93 S 10 17 29.87 1012 10 16 0.00 0.00
5:54 am 05:54 Clear 59 15 56 13.3 90 90 S 10 17 29.87 1012 10 16 0.00 0.00
6:46 am 06:46 Partly Cloudy 61 16.1 58 14.4 90 90 S 13 20 29.88 1012 10 16 0.00 0.00
6:54 am 06:54 Partly Cloudy 61 16.1 58 14.4 90 90 SSW 13 20 29.88 1012 10 16 0.00 0.00
7:02 am 07:02 Mostly Cloudy 60 15.6 58 14.4 93 93 S 10 17 29.91 1013 10 16 0.00 0.00
7:12 am 07:12 Mostly Clear 59 15 58 14.4 96 96 S 9 15 29.91 1013 10 16 0.00 0.00
7:54 am 07:54 Sunny 59 15 58 14.4 96 96 S 12 19 29.88 1012 9 14 0.00 0.00
8:54 am 08:54 Sunny 63 17.2 60 15.6 90 90 S 14 22 29.86 1011 10 16 0.00 0.00
9:31 am 09:31 Mostly Cloudy 65 18.3 61 16.1 87 87 S 18 30 29.85 1011 10 16 0.00 0.00
9:54 am 09:54 Cloudy 64 17.8 60 15.6 87 87 S 18 30 29.86 1011 10 16 0.00 0.00
10:54 am 10:54 Cloudy 67 19.4 61 16.1 81 81 S 18 30 29.86 1011 10 16 0.00 0.00
11:22 am 11:22 Cloudy 69 20.6 62 16.7 78 78 S 14 22 29.85 1011 10 16 0.00 0.00
11:54 am 11:54 Cloudy 69 20.6 61 16.1 76 76 S 16 26 29.87 1012 10 16 0.00 0.00
12:30 pm 12:30 Cloudy 70 21.1 61 16.1 73 73 S 13 20 29.85 1011 10 16 0.00 0.00
12:54 pm 12:54 Cloudy 70 21.1 61 16.1 73 73 SW 7 11 29.87 1012 10 16 0.00 0.00
1:54 pm 13:54 Mostly Cloudy 74 23.3 61 16.1 64 64 SSW 8 13 29.85 1011 10 16 0.00 0.00
2:54 pm 14:54 Mostly Sunny 75 23.9 60 15.6 60 60 S 7 11 29.82 1010 10 16 0.00 0.00
3:54 pm 15:54 Mostly Cloudy 78 25.6 60 15.6 54 54 S 5 7 29.80 1009 10 16 0.00 0.00
4:54 pm 16:54 Sunny 78 25.6 61 16.1 56 56 SSE 6 9 29.78 1009 10 16 0.00 0.00
5:54 pm 17:54 Sunny 78 25.6 60 15.6 54 54 S 10 17 29.76 1008 10 16 0.00 0.00
6:54 pm 18:54 Sunny 75 23.9 61 16.1 62 62 SSE 7 11 29.77 1008 10 16 0.00 0.00
7:54 pm 19:54 Cloudy 72 22.2 62 16.7 71 71 Calm 29.79 1009 10 16 0.00 0.00
8:54 pm 20:54 Cloudy 69 20.6 60 15.6 73 73 N 12 19 29.83 1010 10 16 0.00 0.00
9:54 pm 21:54 Mostly Cloudy 66 18.9 58 14.4 75 75 NNE 7 11 29.85 1011 10 16 0.00 0.00
10:54 pm 22:54 Partly Cloudy 62 16.7 57 13.9 84 84 N 5 7 29.86 1011 10 16 0.00 0.00
11:54 pm 23:54 Cloudy 64 17.8 58 14.4 81 81 N 7 11 29.87 1011 10 16 0.00 0.00

Powered by AerisWeather